Location: Ahstedt
(52.2048°N, 10.1060°E)
Time: 06:54:18
(UTC+00:00)

Lacrosse 5 rocket - Pass Details

Date: 18 January 2026
Orbit: 400 x 481 km, 57.0° (Epoch: 18 February)

Event Time Altitude Azimuth Distance (km) Brightness Sun altitude
Exits shadow 03:51:31 17° 57° (ENE) 1,311 3.8 -31.1°
Drops below altitude 10° 03:52:32 10° 64° (ENE) 1,683 4.6 -30.9°
Sets 03:54:48 0° 72° (ENE) 2,565 5.8 -30.6°
